Time,TemperatureF,DewpointF,PressureIn,WindDirection,WindDirectionDegrees,WindSpeedMPH,WindSpeedGustMPH,Humidity,HourlyPrecipIn,Conditions,Clouds,dailyrainin,SolarRadiationWatts/m^2,SoftwareType,DateUTC
2013-07-07 00:00:00,77.7,71.4,30.06,West,265,0.0,0.0,81,0.00,,,0.00,0.00,VWS V14.01,2013-07-07 04:00:00,
2013-07-07 00:01:00,77.7,71.4,30.06,West,265,0.0,0.0,81,0.00,,,0.00,0.00,VWS V14.01,2013-07-07 04:01:00,
2013-07-07 00:05:00,77.7,71.4,30.06,NW,312,0.0,4.0,81,0.00,,,0.00,0.00,VWS V14.01,2013-07-07 04:05:00,
2013-07-07 00:06:00,77.9,71.6,30.06,NW,312,0.0,0.0,81,0.00,,,0.00,0.00,VWS V14.01,2013-07-07 04:06:00,
2013-07-07 00:10:00,77.9,72.0,30.06,WNW,286,0.0,1.0,82,0.00,,,0.00,0.00,VWS V14.01,2013-07-07 04:10:00,
2013-07-07 00:11:00,77.9,71.6,30.06,WNW,286,0.0,0.0,81,0.00,,,0.00,0.00,VWS V14.01,2013-07-07 04:11:00,
2013-07-07 00:15:00,78.1,71.8,30.06,WNW,286,1.0,1.0,81,0.00,,,0.00,0.00,VWS V14.01,2013-07-07 04:15:00,
2013-07-07 00:16:00,78.1,71.8,30.06,WNW,286,0.0,2.0,81,0.00,,,0.00,0.00,VWS V14.01,2013-07-07 04:16:00,
2013-07-07 00:20:00,78.1,71.8,30.06,WNW,286,0.0,2.0,81,0.00,,,0.00,0.00,VWS V14.01,2013-07-07 04:20:00,
2013-07-07 00:21:00,78.3,72.0,30.06,WNW,286,0.0,0.0,81,0.00,,,0.00,0.00,VWS V14.01,2013-07-07 04:21:00,
2013-07-07 00:25:00,78.3,72.0,30.06,WNW,286,0.0,0.0,81,0.00,,,0.00,0.00,VWS V14.01,2013-07-07 04:25:00,
2013-07-07 00:26:00,78.3,72.0,30.06,WNW,286,0.0,0.0,81,0.00,,,0.00,0.00,VWS V14.01,2013-07-07 04:26:00,
2013-07-07 00:30:00,78.3,72.0,30.06,WSW,240,0.0,2.0,81,0.00,,,0.00,0.00,VWS V14.01,2013-07-07 04:30:00,
2013-07-07 00:31:00,78.3,72.0,30.06,WSW,240,0.0,0.0,81,0.00,,,0.00,0.00,VWS V14.01,2013-07-07 04:31:00,
2013-07-07 00:35:00,78.1,71.8,30.06,WSW,240,0.0,0.0,81,0.00,,,0.00,0.00,VWS V14.01,2013-07-07 04:35:00,
2013-07-07 00:36:00,78.1,71.8,30.06,WSW,240,0.0,0.0,81,0.00,,,0.00,0.00,VWS V14.01,2013-07-07 04:36:00,
2013-07-07 00:40:00,78.1,71.8,30.06,WSW,240,0.0,0.0,81,0.00,,,0.00,0.00,VWS V14.01,2013-07-07 04:40:00,
2013-07-07 00:41:00,77.9,72.0,30.06,WSW,240,0.0,0.0,82,0.00,,,0.00,0.00,VWS V14.01,2013-07-07 04:41:00,
2013-07-07 00:45:00,77.7,71.8,30.06,WSW,240,0.0,0.0,82,0.00,,,0.00,0.00,VWS V14.01,2013-07-07 04:45:00,
2013-07-07 00:46:00,77.7,71.8,30.06,WSW,240,0.0,0.0,82,0.00,,,0.00,0.00,VWS V14.01,2013-07-07 04:46:00,
2013-07-07 00:50:00,77.6,72.0,30.06,WSW,240,0.0,0.0,83,0.00,,,0.00,0.00,VWS V14.01,2013-07-07 04:50:00,
2013-07-07 00:51:00,77.6,72.0,30.06,WSW,240,0.0,0.0,83,0.00,,,0.00,0.00,VWS V14.01,2013-07-07 04:51:00,
2013-07-07 00:55:00,77.6,72.0,30.06,WSW,240,0.0,0.0,83,0.00,,,0.00,0.00,VWS V14.01,2013-07-07 04:55:00,
2013-07-07 00:56:00,77.4,71.8,30.06,WSW,240,0.0,0.0,83,0.00,,,0.00,0.00,VWS V14.01,2013-07-07 04:56:00,
2013-07-07 01:00:00,77.4,71.8,30.06,WSW,240,0.0,0.0,83,0.00,,,0.00,0.00,VWS V14.01,2013-07-07 05:00:00,
2013-07-07 01:01:00,77.4,72.2,30.06,WSW,240,0.0,0.0,84,0.00,,,0.00,0.00,VWS V14.01,2013-07-07 05:01:00,
2013-07-07 01:05:00,77.2,72.0,30.06,WSW,240,0.0,0.0,84,0.00,,,0.00,0.00,VWS V14.01,2013-07-07 05:05:00,
2013-07-07 01:06:00,77.2,72.0,30.06,WSW,240,0.0,0.0,84,0.00,,,0.00,0.00,VWS V14.01,2013-07-07 05:06:00,
2013-07-07 01:10:00,77.0,71.8,30.06,WSW,240,0.0,0.0,84,0.00,,,0.00,0.00,VWS V14.01,2013-07-07 05:10:00,
2013-07-07 01:11:00,77.0,71.8,30.06,WSW,240,0.0,0.0,84,0.00,,,0.00,0.00,VWS V14.01,2013-07-07 05:11:00,
2013-07-07 01:15:00,77.0,72.2,30.06,WSW,240,0.0,0.0,85,0.00,,,0.00,0.00,VWS V14.01,2013-07-07 05:15:00,
2013-07-07 01:16:00,76.8,71.9,30.06,WSW,240,0.0,0.0,85,0.00,,,0.00,0.00,VWS V14.01,2013-07-07 05:16:00,
2013-07-07 01:20:00,76.8,71.9,30.06,WSW,240,0.0,0.0,85,0.00,,,0.00,0.00,VWS V14.01,2013-07-07 05:20:00,
2013-07-07 01:21:00,76.7,71.9,30.06,WSW,240,0.0,0.0,85,0.00,,,0.00,0.00,VWS V14.01,2013-07-07 05:21:00,
2013-07-07 01:25:00,76.7,71.9,30.06,WSW,240,0.0,0.0,85,0.00,,,0.00,0.00,VWS V14.01,2013-07-07 05:25:00,
2013-07-07 01:26:00,76.7,71.9,30.06,WSW,240,0.0,0.0,85,0.00,,,0.00,0.00,VWS V14.01,2013-07-07 05:26:00,
2013-07-07 01:30:00,76.7,72.2,30.05,WSW,240,0.0,4.0,86,0.00,,,0.00,0.00,VWS V14.01,2013-07-07 05:30:00,
2013-07-07 01:31:00,76.7,72.2,30.05,WSW,240,0.0,0.0,86,0.00,,,0.00,0.00,VWS V14.01,2013-07-07 05:31:00,
2013-07-07 01:35:00,76.5,72.0,30.05,North,5,1.0,2.0,86,0.00,,,0.00,0.00,VWS V14.01,2013-07-07 05:35:00,
2013-07-07 01:36:00,76.5,72.0,30.05,North,5,0.0,1.0,86,0.00,,,0.00,0.00,VWS V14.01,2013-07-07 05:36:00,
2013-07-07 01:40:00,76.7,72.2,30.05,SSW,209,4.0,5.0,86,0.00,,,0.00,0.00,VWS V14.01,2013-07-07 05:40:00,
2013-07-07 01:41:00,76.7,72.2,30.05,West,271,2.0,5.0,86,0.00,,,0.00,0.00,VWS V14.01,2013-07-07 05:41:00,
2013-07-07 01:45:00,76.8,71.9,30.05,West,271,0.0,5.0,85,0.00,,,0.00,0.00,VWS V14.01,2013-07-07 05:45:00,
2013-07-07 01:46:00,76.8,71.9,30.05,West,271,0.0,0.0,85,0.00,,,0.00,0.00,VWS V14.01,2013-07-07 05:46:00,
2013-07-07 01:50:00,77.0,72.2,30.05,WNW,291,0.0,8.0,85,0.00,,,0.00,0.00,VWS V14.01,2013-07-07 05:50:00,
2013-07-07 01:51:00,77.2,72.3,30.05,WNW,291,0.0,0.0,85,0.00,,,0.00,0.00,VWS V14.01,2013-07-07 05:51:00,
2013-07-07 01:55:00,77.2,72.3,30.05,WNW,290,0.0,1.0,85,0.00,,,0.00,0.00,VWS V14.01,2013-07-07 05:55:00,
2013-07-07 01:56:00,77.2,72.3,30.05,WNW,290,0.0,0.0,85,0.00,,,0.00,0.00,VWS V14.01,2013-07-07 05:56:00,
2013-07-07 02:00:00,77.4,72.2,30.06,WSW,243,0.0,4.0,84,0.00,,,0.00,0.00,VWS V14.01,2013-07-07 06:00:00,
2013-07-07 02:01:00,77.4,72.2,30.06,WSW,243,0.0,0.0,84,0.00,,,0.00,0.00,VWS V14.01,2013-07-07 06:01:00,
2013-07-07 02:05:00,77.2,72.0,30.06,WSW,243,0.0,0.0,84,0.00,,,0.00,0.00,VWS V14.01,2013-07-07 06:05:00,
2013-07-07 02:06:00,77.2,72.0,30.06,WSW,243,0.0,0.0,84,0.00,,,0.00,0.00,VWS V14.01,2013-07-07 06:06:00,
2013-07-07 02:10:00,77.0,71.8,30.06,WSW,243,0.0,0.0,84,0.00,,,0.00,0.00,VWS V14.01,2013-07-07 06:10:00,
2013-07-07 02:11:00,77.0,71.8,30.06,WSW,243,0.0,0.0,84,0.00,,,0.00,0.00,VWS V14.01,2013-07-07 06:11:00,
2013-07-07 02:15:00,76.8,71.9,30.06,WSW,243,0.0,0.0,85,0.00,,,0.00,0.00,VWS V14.01,2013-07-07 06:15:00,
2013-07-07 02:16:00,76.8,71.9,30.06,WSW,243,0.0,0.0,85,0.00,,,0.00,0.00,VWS V14.01,2013-07-07 06:16:00,
2013-07-07 02:20:00,76.7,71.9,30.06,WSW,243,0.0,0.0,85,0.00,,,0.00,0.00,VWS V14.01,2013-07-07 06:20:00,
2013-07-07 02:25:00,76.3,71.8,30.06,WSW,243,0.0,0.0,86,0.00,,,0.00,0.00,VWS V14.01,2013-07-07 06:25:00,
2013-07-07 02:30:00,76.1,71.6,30.05,WSW,243,0.0,0.0,86,0.00,,,0.00,0.00,VWS V14.01,2013-07-07 06:30:00,
2013-07-07 02:35:00,76.0,71.5,30.05,WSW,243,0.0,0.0,86,0.00,,,0.00,0.00,VWS V14.01,2013-07-07 06:35:00,
2013-07-07 02:40:00,76.0,71.9,30.05,WSW,243,0.0,0.0,87,0.00,,,0.00,0.00,VWS V14.01,2013-07-07 06:40:00,
2013-07-07 02:45:00,75.6,71.8,30.04,WSW,243,0.0,0.0,88,0.00,,,0.00,0.00,VWS V14.01,2013-07-07 06:45:00,
2013-07-07 02:50:00,75.4,71.6,30.04,WSW,243,0.0,0.0,88,0.00,,,0.00,0.00,VWS V14.01,2013-07-07 06:50:00,
2013-07-07 02:55:00,75.3,71.5,30.04,WSW,243,0.0,0.0,88,0.00,,,0.00,0.00,VWS V14.01,2013-07-07 06:55:00,
2013-07-07 03:00:00,75.1,71.6,30.04,WSW,243,0.0,0.0,89,0.00,,,0.00,0.00,VWS V14.01,2013-07-07 07:00:00,
2013-07-07 03:05:00,74.9,71.4,30.04,WSW,243,0.0,0.0,89,0.00,,,0.00,0.00,VWS V14.01,2013-07-07 07:05:00,
2013-07-07 03:10:00,74.7,71.2,30.04,WSW,243,0.0,0.0,89,0.00,,,0.00,0.00,VWS V14.01,2013-07-07 07:10:00,
2013-07-07 03:15:00,74.7,71.6,30.04,WSW,244,0.0,0.0,90,0.00,,,0.00,0.00,VWS V14.01,2013-07-07 07:15:00,
2013-07-07 03:20:00,74.6,71.5,30.04,WSW,244,0.0,0.0,90,0.00,,,0.00,0.00,VWS V14.01,2013-07-07 07:20:00,
2013-07-07 03:25:00,74.4,71.6,30.04,WSW,244,0.0,0.0,91,0.00,,,0.00,0.00,VWS V14.01,2013-07-07 07:25:00,
2013-07-07 03:30:00,74.4,71.6,30.04,WSW,245,0.0,0.0,91,0.00,,,0.00,0.00,VWS V14.01,2013-07-07 07:30:00,
2013-07-07 03:35:00,74.2,71.7,30.04,WSW,245,0.0,0.0,92,0.00,,,0.00,0.00,VWS V14.01,2013-07-07 07:35:00,
2013-07-07 03:40:00,74.2,71.7,30.04,WSW,246,0.0,0.0,92,0.00,,,0.00,0.00,VWS V14.01,2013-07-07 07:40:00,
2013-07-07 03:45:00,74.0,71.5,30.03,WSW,246,0.0,0.0,92,0.00,,,0.00,0.00,VWS V14.01,2013-07-07 07:45:00,
2013-07-07 03:50:00,74.0,71.5,30.03,WSW,246,0.0,0.0,92,0.00,,,0.00,0.00,VWS V14.01,2013-07-07 07:50:00,
2013-07-07 03:55:00,73.9,71.4,30.03,WSW,246,0.0,0.0,92,0.00,,,0.00,0.00,VWS V14.01,2013-07-07 07:55:00,
2013-07-07 04:00:00,73.9,71.8,30.03,North,349,0.0,0.0,93,0.00,,,0.00,0.00,VWS V14.01,2013-07-07 08:00:00,
2013-07-07 04:05:00,73.7,71.6,30.03,North,355,0.0,0.0,93,0.00,,,0.00,0.00,VWS V14.01,2013-07-07 08:05:00,
2013-07-07 04:10:00,73.7,71.6,30.03,North,355,0.0,0.0,93,0.00,,,0.00,0.00,VWS V14.01,2013-07-07 08:10:00,
2013-07-07 04:15:00,73.5,71.4,30.03,North,355,0.0,0.0,93,0.00,,,0.00,0.00,VWS V14.01,2013-07-07 08:15:00,
2013-07-07 04:20:00,73.5,71.4,30.03,North,0,0.0,0.0,93,0.00,,,0.00,0.00,VWS V14.01,2013-07-07 08:20:00,
2013-07-07 04:25:00,73.3,71.5,30.03,North,0,0.0,0.0,94,0.00,,,0.00,0.00,VWS V14.01,2013-07-07 08:25:00,
2013-07-07 04:30:00,73.3,71.5,30.03,North,0,0.0,2.0,94,0.00,,,0.00,0.00,VWS V14.01,2013-07-07 08:30:00,
2013-07-07 04:35:00,73.3,71.5,30.03,North,0,0.0,0.0,94,0.00,,,0.00,0.00,VWS V14.01,2013-07-07 08:35:00,
2013-07-07 04:40:00,73.3,71.5,30.03,North,0,0.0,1.0,94,0.00,,,0.00,0.00,VWS V14.01,2013-07-07 08:40:00,
2013-07-07 04:45:00,73.2,71.4,30.03,North,0,0.0,0.0,94,0.00,,,0.00,0.00,VWS V14.01,2013-07-07 08:45:00,
2013-07-07 04:50:00,73.2,71.4,30.03,North,0,0.0,0.0,94,0.00,,,0.00,0.00,VWS V14.01,2013-07-07 08:50:00,
2013-07-07 04:55:00,73.2,71.7,30.03,North,0,0.0,0.0,95,0.00,,,0.00,0.00,VWS V14.01,2013-07-07 08:55:00,
2013-07-07 05:00:00,73.2,71.7,30.03,North,0,0.0,0.0,95,0.00,,,0.00,0.00,VWS V14.01,2013-07-07 09:00:00,
2013-07-07 05:05:00,73.2,71.7,30.03,NNW,338,0.0,2.0,95,0.00,,,0.00,0.00,VWS V14.01,2013-07-07 09:05:00,
2013-07-07 05:10:00,73.2,71.4,30.03,NNW,338,0.0,0.0,94,0.00,,,0.00,0.00,VWS V14.01,2013-07-07 09:10:00,
2013-07-07 05:15:00,73.0,71.5,30.03,NNW,338,0.0,0.0,95,0.00,,,0.00,0.00,VWS V14.01,2013-07-07 09:15:00,
2013-07-07 05:20:00,73.0,71.5,30.03,NNW,338,0.0,0.0,95,0.00,,,0.00,0.00,VWS V14.01,2013-07-07 09:20:00,
2013-07-07 05:25:00,73.0,71.2,30.03,NNW,338,0.0,1.0,94,0.00,,,0.00,0.00,VWS V14.01,2013-07-07 09:25:00,
2013-07-07 05:30:00,72.8,71.3,30.03,NNW,338,0.0,0.0,95,0.00,,,0.00,0.00,VWS V14.01,2013-07-07 09:30:00,
2013-07-07 05:35:00,72.8,71.3,30.03,NNW,338,0.0,1.0,95,0.00,,,0.00,0.00,VWS V14.01,2013-07-07 09:35:00,
2013-07-07 05:40:00,72.8,71.3,30.03,NNW,338,0.0,0.0,95,0.00,,,0.00,3.00,VWS V14.01,2013-07-07 09:40:00,
2013-07-07 05:45:00,72.8,71.3,30.03,NNW,338,0.0,2.0,95,0.00,,,0.00,8.00,VWS V14.01,2013-07-07 09:45:00,
2013-07-07 05:50:00,72.7,71.2,30.03,NNW,338,0.0,0.0,95,0.00,,,0.00,13.00,VWS V14.01,2013-07-07 09:50:00,
2013-07-07 05:55:00,72.7,71.2,30.03,NNW,338,0.0,0.0,95,0.00,,,0.00,18.00,VWS V14.01,2013-07-07 09:55:00,
2013-07-07 06:00:00,72.5,71.0,30.03,NNW,338,0.0,0.0,95,0.00,,,0.00,20.00,VWS V14.01,2013-07-07 10:00:00,
2013-07-07 06:05:00,72.5,71.0,30.03,NNW,338,0.0,0.0,95,0.00,,,0.00,22.00,VWS V14.01,2013-07-07 10:05:00,
2013-07-07 06:10:00,72.5,71.0,30.03,NNW,338,0.0,0.0,95,0.00,,,0.00,29.00,VWS V14.01,2013-07-07 10:10:00,
2013-07-07 06:15:00,72.5,71.0,30.03,NNW,338,0.0,0.0,95,0.00,,,0.00,60.00,VWS V14.01,2013-07-07 10:15:00,
2013-07-07 06:20:00,72.7,71.2,30.03,NNW,338,0.0,0.0,95,0.00,,,0.00,66.00,VWS V14.01,2013-07-07 10:20:00,
2013-07-07 06:25:00,72.8,71.6,30.03,NNW,338,0.0,0.0,96,0.00,,,0.00,71.00,VWS V14.01,2013-07-07 10:25:00,
2013-07-07 06:30:00,73.0,71.8,30.03,NNW,338,0.0,0.0,96,0.00,,,0.00,47.00,VWS V14.01,2013-07-07 10:30:00,
2013-07-07 06:35:00,73.0,71.5,30.03,NNW,338,0.0,0.0,95,0.00,,,0.00,74.00,VWS V14.01,2013-07-07 10:35:00,
2013-07-07 06:40:00,73.2,72.0,30.03,NNW,338,0.0,0.0,96,0.00,,,0.00,88.00,VWS V14.01,2013-07-07 10:40:00,
2013-07-07 06:45:00,73.3,72.1,30.04,NNW,338,0.0,0.0,96,0.00,,,0.00,80.00,VWS V14.01,2013-07-07 10:45:00,
2013-07-07 06:50:00,73.5,72.3,30.04,NNW,338,0.0,0.0,96,0.00,,,0.00,107.00,VWS V14.01,2013-07-07 10:50:00,
2013-07-07 06:55:00,73.9,72.4,30.04,NNW,338,0.0,0.0,95,0.00,,,0.00,75.00,VWS V14.01,2013-07-07 10:55:00,
2013-07-07 07:00:00,74.0,72.2,30.04,NNW,338,0.0,1.0,94,0.00,,,0.00,39.00,VWS V14.01,2013-07-07 11:00:00,
2013-07-07 07:05:00,74.0,72.2,30.04,NNW,338,0.0,1.0,94,0.00,,,0.00,69.00,VWS V14.01,2013-07-07 11:05:00,
2013-07-07 07:10:00,74.6,71.5,30.04,SW,225,0.0,4.0,90,0.00,,,0.00,155.00,VWS V14.01,2013-07-07 11:10:00,
2013-07-07 07:15:00,75.6,70.8,30.04,SW,225,0.0,1.0,85,0.00,,,0.00,190.00,VWS V14.01,2013-07-07 11:15:00,
2013-07-07 07:20:00,76.5,70.6,30.04,SW,225,0.0,2.0,82,0.00,,,0.00,210.00,VWS V14.01,2013-07-07 11:20:00,
2013-07-07 07:25:00,77.0,70.7,30.04,WSW,248,2.0,7.0,81,0.00,,,0.00,209.00,VWS V14.01,2013-07-07 11:25:00,
2013-07-07 07:30:00,77.2,70.2,30.03,West,270,4.0,8.0,79,0.00,,,0.00,246.00,VWS V14.01,2013-07-07 11:30:00,
2013-07-07 07:35:00,77.4,70.4,30.03,SW,225,3.0,6.0,79,0.00,,,0.00,262.00,VWS V14.01,2013-07-07 11:35:00,
2013-07-07 07:40:00,77.4,70.4,30.03,WSW,248,2.0,7.0,79,0.00,,,0.00,278.00,VWS V14.01,2013-07-07 11:40:00,
2013-07-07 07:45:00,77.6,70.6,30.04,WSW,248,4.0,8.0,79,0.00,,,0.00,293.00,VWS V14.01,2013-07-07 11:45:00,
2013-07-07 07:50:00,77.7,70.7,30.04,West,270,1.0,6.0,79,0.00,,,0.00,308.00,VWS V14.01,2013-07-07 11:50:00,
2013-07-07 07:55:00,77.9,70.9,30.04,WNW,292,0.0,5.0,79,0.00,,,0.00,324.00,VWS V14.01,2013-07-07 11:55:00,
2013-07-07 08:00:00,78.1,70.7,30.03,West,270,1.0,7.0,78,0.00,,,0.00,341.00,VWS V14.01,2013-07-07 12:00:00,
2013-07-07 08:05:00,78.1,70.7,30.03,WNW,292,3.0,7.0,78,0.00,,,0.00,356.00,VWS V14.01,2013-07-07 12:05:00,
2013-07-07 08:10:00,78.1,70.7,30.03,West,270,3.0,8.0,78,0.00,,,0.00,371.00,VWS V14.01,2013-07-07 12:10:00,
2013-07-07 08:15:00,78.5,71.1,30.03,WNW,292,2.0,6.0,78,0.00,,,0.00,386.00,VWS V14.01,2013-07-07 12:15:00,
2013-07-07 08:20:00,78.3,70.5,30.03,WSW,248,5.0,9.0,77,0.00,,,0.00,399.00,VWS V14.01,2013-07-07 12:20:00,
2013-07-07 08:25:00,78.5,70.7,30.03,WNW,292,4.0,10.0,77,0.00,,,0.00,413.00,VWS V14.01,2013-07-07 12:25:00,
2013-07-07 08:30:00,78.6,70.8,30.04,West,270,4.0,9.0,77,0.00,,,0.00,425.00,VWS V14.01,2013-07-07 12:30:00,
2013-07-07 08:35:00,78.6,70.8,30.04,WSW,248,3.0,9.0,77,0.00,,,0.00,441.00,VWS V14.01,2013-07-07 12:35:00,
2013-07-07 08:40:00,79.4,71.2,30.04,WSW,248,2.0,7.0,76,0.00,,,0.00,451.00,VWS V14.01,2013-07-07 12:40:00,
2013-07-07 08:45:00,79.4,71.2,30.04,West,270,2.0,7.0,76,0.00,,,0.00,466.00,VWS V14.01,2013-07-07 12:45:00,
2013-07-07 08:50:00,79.2,71.4,30.04,WSW,248,3.0,8.0,77,0.00,,,0.00,478.00,VWS V14.01,2013-07-07 12:50:00,
2013-07-07 08:55:00,79.4,70.8,30.04,West,270,1.0,6.0,75,0.00,,,0.00,492.00,VWS V14.01,2013-07-07 12:55:00,
2013-07-07 09:00:00,79.6,71.0,30.04,WSW,248,3.0,7.0,75,0.00,,,0.00,501.00,VWS V14.01,2013-07-07 13:00:00,
2013-07-07 09:05:00,79.9,71.7,30.04,West,270,3.0,7.0,76,0.00,,,0.00,529.00,VWS V14.01,2013-07-07 13:05:00,
2013-07-07 09:10:00,80.1,71.5,30.04,SW,225,1.0,5.0,75,0.00,,,0.00,545.00,VWS V14.01,2013-07-07 13:10:00,
2013-07-07 09:15:00,80.5,71.5,30.04,West,270,0.0,1.0,74,0.00,,,0.00,557.00,VWS V14.01,2013-07-07 13:15:00,
2013-07-07 09:20:00,82.2,71.9,30.04,WNW,292,0.0,1.0,71,0.00,,,0.00,570.00,VWS V14.01,2013-07-07 13:20:00,
2013-07-07 09:25:00,81.2,71.7,30.04,WSW,248,3.0,6.0,73,0.00,,,0.00,563.00,VWS V14.01,2013-07-07 13:25:00,
2013-07-07 09:30:00,81.4,71.1,30.04,West,270,2.0,6.0,71,0.00,,,0.00,587.00,VWS V14.01,2013-07-07 13:30:00,
2013-07-07 09:35:00,81.6,70.9,30.04,WNW,292,3.0,8.0,70,0.00,,,0.00,601.00,VWS V14.01,2013-07-07 13:35:00,
2013-07-07 09:40:00,81.8,70.6,30.04,West,270,3.0,9.0,69,0.00,,,0.00,618.00,VWS V14.01,2013-07-07 13:40:00,
2013-07-07 09:45:00,81.4,70.3,30.03,West,270,3.0,7.0,69,0.00,,,0.00,630.00,VWS V14.01,2013-07-07 13:45:00,
2013-07-07 09:50:00,81.8,71.5,30.03,WNW,292,1.0,7.0,71,0.00,,,0.00,637.00,VWS V14.01,2013-07-07 13:50:00,
2013-07-07 09:55:00,81.8,71.1,30.03,WSW,248,3.0,7.0,70,0.00,,,0.00,650.00,VWS V14.01,2013-07-07 13:55:00,
2013-07-07 10:00:00,82.0,71.3,30.03,West,270,3.0,10.0,70,0.00,,,0.00,668.00,VWS V14.01,2013-07-07 14:00:00,
2013-07-07 10:05:00,82.0,70.4,30.03,WSW,248,3.0,8.0,68,0.00,,,0.00,684.00,VWS V14.01,2013-07-07 14:05:00,
2013-07-07 10:15:00,82.0,70.4,30.03,WSW,248,3.0,8.0,68,0.00,,,0.00,684.00,VWS V14.01,2013-07-07 14:15:00,
2013-07-07 10:20:00,82.8,70.7,30.03,WSW,257,7.0,7.0,67,0.00,,,0.00,715.00,VWS V14.01,2013-07-07 14:20:00,
2013-07-07 10:25:00,82.6,71.0,30.03,WSW,255,4.0,5.0,68,0.00,,,0.00,740.00,VWS V14.01,2013-07-07 14:25:00,
2013-07-07 10:30:00,82.6,70.5,30.03,WSW,242,2.0,6.0,67,0.00,,,0.00,754.00,VWS V14.01,2013-07-07 14:30:00,
2013-07-07 10:35:00,83.0,70.9,30.03,SW,236,0.0,1.0,67,0.00,,,0.00,754.00,VWS V14.01,2013-07-07 14:35:00,
2013-07-07 10:40:00,83.4,71.3,30.03,SW,215,0.0,2.0,67,0.00,,,0.00,770.00,VWS V14.01,2013-07-07 14:40:00,
2013-07-07 10:45:00,84.1,72.0,30.02,WNW,296,0.0,1.0,67,0.00,,,0.00,780.00,VWS V14.01,2013-07-07 14:45:00,
2013-07-07 10:50:00,84.3,71.3,30.02,WSW,252,4.0,5.0,65,0.00,,,0.00,786.00,VWS V14.01,2013-07-07 14:50:00,
2013-07-07 10:55:00,84.7,71.6,30.02,WNW,295,0.0,1.0,65,0.00,,,0.00,758.00,VWS V14.01,2013-07-07 14:55:00,
2013-07-07 11:00:00,84.5,71.4,30.02,West,271,0.0,0.0,65,0.00,,,0.00,798.00,VWS V14.01,2013-07-07 15:00:00,
2013-07-07 11:05:00,85.1,72.5,30.02,WSW,241,0.0,0.0,66,0.00,,,0.00,814.00,VWS V14.01,2013-07-07 15:05:00,
2013-07-07 11:10:00,85.1,71.1,30.02,SSW,193,0.0,0.0,63,0.00,,,0.00,833.00,VWS V14.01,2013-07-07 15:10:00,
2013-07-07 11:15:00,85.5,71.9,30.02,SW,221,0.0,0.0,64,0.00,,,0.00,831.00,VWS V14.01,2013-07-07 15:15:00,
2013-07-07 11:20:00,85.9,72.3,30.02,WSW,237,4.0,5.0,64,0.00,,,0.00,837.00,VWS V14.01,2013-07-07 15:20:00,
2013-07-07 11:25:00,85.3,71.8,30.02,WSW,252,0.0,8.0,64,0.00,,,0.00,842.00,VWS V14.01,2013-07-07 15:25:00,
2013-07-07 11:30:00,85.1,71.1,30.01,WSW,240,0.0,1.0,63,0.00,,,0.00,846.00,VWS V14.01,2013-07-07 15:30:00,
2013-07-07 11:35:00,85.9,70.9,30.01,WNW,297,0.0,0.0,61,0.00,,,0.00,847.00,VWS V14.01,2013-07-07 15:35:00,
2013-07-07 11:40:00,86.7,70.7,30.01,WSW,252,5.0,5.0,59,0.00,,,0.00,851.00,VWS V14.01,2013-07-07 15:40:00,
2013-07-07 11:45:00,86.5,70.5,30.01,West,272,1.0,5.0,59,0.00,,,0.00,847.00,VWS V14.01,2013-07-07 15:45:00,
2013-07-07 11:50:00,87.4,71.8,30.01,NNW,348,4.0,6.0,60,0.00,,,0.00,831.00,VWS V14.01,2013-07-07 15:50:00,
2013-07-07 11:55:00,87.8,72.2,30.01,West,270,5.0,5.0,60,0.00,,,0.00,868.00,VWS V14.01,2013-07-07 15:55:00,
2013-07-07 12:00:00,86.5,71.0,30.01,West,280,5.0,7.0,60,0.00,,,0.00,896.00,VWS V14.01,2013-07-07 16:00:00,
2013-07-07 12:05:00,86.5,71.5,30.01,West,259,4.0,4.0,61,0.00,,,0.00,898.00,VWS V14.01,2013-07-07 16:05:00,
2013-07-07 12:10:00,88.0,71.4,30.01,WSW,255,0.0,0.0,58,0.00,,,0.00,905.00,VWS V14.01,2013-07-07 16:10:00,
2013-07-07 12:15:00,88.4,71.8,30.01,NNW,346,2.0,6.0,58,0.00,,,0.00,911.00,VWS V14.01,2013-07-07 16:15:00,
2013-07-07 12:20:00,88.8,71.6,30.01,West,275,7.0,8.0,57,0.00,,,0.00,925.00,VWS V14.01,2013-07-07 16:20:00,
2013-07-07 12:25:00,87.6,71.5,30.01,WSW,258,4.0,7.0,59,0.00,,,0.00,926.00,VWS V14.01,2013-07-07 16:25:00,
2013-07-07 12:30:00,88.0,71.4,30.01,West,275,6.0,6.0,58,0.00,,,0.00,923.00,VWS V14.01,2013-07-07 16:30:00,
2013-07-07 12:35:00,88.8,72.6,30.01,North,360,0.0,4.0,59,0.00,,,0.00,923.00,VWS V14.01,2013-07-07 16:35:00,
2013-07-07 12:40:00,89.0,72.3,30.01,SW,233,5.0,7.0,58,0.00,,,0.00,383.00,VWS V14.01,2013-07-07 16:40:00,
2013-07-07 12:45:00,88.2,72.6,30.00,West,276,5.0,6.0,60,0.00,,,0.00,933.00,VWS V14.01,2013-07-07 16:45:00,
2013-07-07 12:50:00,87.8,72.2,30.00,West,261,3.0,4.0,60,0.00,,,0.00,930.00,VWS V14.01,2013-07-07 16:50:00,
2013-07-07 12:55:00,88.2,71.6,30.00,SSW,200,7.0,7.0,58,0.00,,,0.00,926.00,VWS V14.01,2013-07-07 16:55:00,
2013-07-07 13:00:00,88.8,72.6,30.00,WSW,254,1.0,4.0,59,0.00,,,0.00,925.00,VWS V14.01,2013-07-07 17:00:00,
2013-07-07 13:05:00,88.2,72.1,30.00,West,267,0.0,1.0,59,0.00,,,0.00,905.00,VWS V14.01,2013-07-07 17:05:00,
2013-07-07 13:10:00,88.6,72.9,30.00,WSW,252,6.0,6.0,60,0.00,,,0.00,898.00,VWS V14.01,2013-07-07 17:10:00,
2013-07-07 13:15:00,88.6,72.4,30.00,West,278,0.0,1.0,59,0.00,,,0.00,942.00,VWS V14.01,2013-07-07 17:15:00,
2013-07-07 13:20:00,89.0,71.8,30.00,WSW,241,2.0,10.0,57,0.00,,,0.00,889.00,VWS V14.01,2013-07-07 17:20:00,
2013-07-07 13:25:00,88.2,71.1,30.00,SW,234,7.0,7.0,57,0.00,,,0.00,933.00,VWS V14.01,2013-07-07 17:25:00,
2013-07-07 13:30:00,89.7,72.4,29.99,WSW,252,6.0,9.0,57,0.00,,,0.00,909.00,VWS V14.01,2013-07-07 17:30:00,
2013-07-07 13:35:00,88.4,71.8,29.99,WSW,251,9.0,10.0,58,0.00,,,0.00,939.00,VWS V14.01,2013-07-07 17:35:00,
2013-07-07 13:40:00,88.6,72.4,29.99,WSW,255,0.0,0.0,59,0.00,,,0.00,1074.00,VWS V14.01,2013-07-07 17:40:00,
2013-07-07 13:45:00,88.4,72.3,29.99,SW,232,6.0,6.0,59,0.00,,,0.00,958.00,VWS V14.01,2013-07-07 17:45:00,
2013-07-07 13:50:00,88.0,72.4,29.99,WSW,250,4.0,5.0,60,0.00,,,0.00,981.00,VWS V14.01,2013-07-07 17:50:00,
2013-07-07 13:55:00,88.8,73.1,29.99,SW,232,6.0,6.0,60,0.00,,,0.00,944.00,VWS V14.01,2013-07-07 17:55:00,
2013-07-07 14:00:00,89.7,73.0,29.98,West,264,9.0,9.0,58,0.00,,,0.00,923.00,VWS V14.01,2013-07-07 18:00:00,
2013-07-07 14:05:00,89.9,73.7,29.98,West,275,0.0,1.0,59,0.00,,,0.00,923.00,VWS V14.01,2013-07-07 18:05:00,
2013-07-07 14:10:00,90.3,74.0,29.98,West,274,5.0,6.0,59,0.00,,,0.00,944.00,VWS V14.01,2013-07-07 18:10:00,
2013-07-07 14:15:00,89.3,73.6,29.98,WNW,286,2.0,4.0,60,0.00,,,0.00,912.00,VWS V14.01,2013-07-07 18:15:00,
2013-07-07 14:20:00,89.3,73.6,29.98,WSW,238,8.0,9.0,60,0.00,,,0.00,916.00,VWS V14.01,2013-07-07 18:20:00,
2013-07-07 14:25:00,89.5,72.8,29.98,WSW,241,7.0,9.0,58,0.00,,,0.00,872.00,VWS V14.01,2013-07-07 18:25:00,
2013-07-07 14:30:00,90.5,73.2,29.97,WNW,285,5.0,7.0,57,0.00,,,0.00,960.00,VWS V14.01,2013-07-07 18:30:00,
2013-07-07 14:35:00,90.1,73.3,29.97,West,259,6.0,9.0,58,0.00,,,0.00,998.00,VWS V14.01,2013-07-07 18:35:00,
2013-07-07 14:40:00,89.7,71.9,29.97,SSW,209,9.0,9.0,56,0.00,,,0.00,998.00,VWS V14.01,2013-07-07 18:40:00,
2013-07-07 14:45:00,89.9,72.6,29.97,WSW,237,5.0,5.0,57,0.00,,,0.00,860.00,VWS V14.01,2013-07-07 18:45:00,
2013-07-07 14:50:00,89.9,71.6,29.97,West,266,8.0,8.0,55,0.00,,,0.00,780.00,VWS V14.01,2013-07-07 18:50:00,
2013-07-07 14:55:00,90.7,71.2,29.97,West,266,5.0,7.0,53,0.00,,,0.00,772.00,VWS V14.01,2013-07-07 18:55:00,
2013-07-07 15:00:00,90.3,71.9,29.96,WSW,240,6.0,13.0,55,0.00,,,0.00,802.00,VWS V14.01,2013-07-07 19:00:00,
2013-07-07 15:05:00,90.1,71.8,29.96,NW,312,1.0,5.0,55,0.00,,,0.00,798.00,VWS V14.01,2013-07-07 19:05:00,
2013-07-07 15:09:00,89.7,71.9,29.96,WSW,254,8.0,8.0,56,0.00,,,0.00,737.00,VWS V14.01,2013-07-07 19:09:00,
2013-07-07 15:10:00,89.7,70.9,29.96,West,274,7.0,14.0,54,0.00,,,0.00,745.00,VWS V14.01,2013-07-07 19:10:00,
2013-07-07 15:14:00,89.7,73.0,29.95,West,273,2.0,2.0,58,0.00,,,0.00,838.00,VWS V14.01,2013-07-07 19:14:00,
2013-07-07 15:15:00,89.7,72.4,29.95,West,267,0.0,12.0,57,0.00,,,0.00,838.00,VWS V14.01,2013-07-07 19:15:00,
2013-07-07 15:19:00,90.1,72.3,29.95,SW,230,6.0,8.0,56,0.00,,,0.00,819.00,VWS V14.01,2013-07-07 19:19:00,
2013-07-07 15:20:00,90.1,72.3,29.95,West,276,8.0,10.0,56,0.00,,,0.00,819.00,VWS V14.01,2013-07-07 19:20:00,
2013-07-07 15:24:00,90.3,73.0,29.95,SW,234,10.0,10.0,57,0.00,,,0.00,895.00,VWS V14.01,2013-07-07 19:24:00,
2013-07-07 15:25:00,90.3,73.0,29.95,SW,233,7.0,11.0,57,0.00,,,0.00,895.00,VWS V14.01,2013-07-07 19:25:00,
2013-07-07 15:29:00,90.5,72.1,29.95,WNW,284,4.0,5.0,55,0.00,,,0.00,872.00,VWS V14.01,2013-07-07 19:29:00,
2013-07-07 15:30:00,90.3,71.9,29.95,WNW,284,5.0,15.0,55,0.00,,,0.00,872.00,VWS V14.01,2013-07-07 19:30:00,
2013-07-07 15:34:00,90.5,72.7,29.95,West,269,4.0,5.0,56,0.00,,,0.00,722.00,VWS V14.01,2013-07-07 19:34:00,
2013-07-07 15:35:00,90.5,72.7,29.95,West,269,5.0,14.0,56,0.00,,,0.00,722.00,VWS V14.01,2013-07-07 19:35:00,
2013-07-07 15:39:00,90.3,72.5,29.95,West,269,7.0,10.0,56,0.00,,,0.00,772.00,VWS V14.01,2013-07-07 19:39:00,
2013-07-07 15:40:00,90.3,72.5,29.95,West,265,10.0,15.0,56,0.00,,,0.00,197.00,VWS V14.01,2013-07-07 19:40:00,
2013-07-07 15:44:00,90.1,73.3,29.95,WSW,248,4.0,6.0,58,0.00,,,0.00,802.00,VWS V14.01,2013-07-07 19:44:00,
2013-07-07 15:45:00,90.1,72.8,29.95,WSW,248,6.0,15.0,57,0.00,,,0.00,802.00,VWS V14.01,2013-07-07 19:45:00,
2013-07-07 15:49:00,90.5,72.7,29.95,WNW,292,3.0,6.0,56,0.00,,,0.00,807.00,VWS V14.01,2013-07-07 19:49:00,
2013-07-07 15:50:00,90.5,72.1,29.95,WSW,248,6.0,10.0,55,0.00,,,0.00,807.00,VWS V14.01,2013-07-07 19:50:00,
2013-07-07 15:54:00,90.1,71.8,29.95,West,277,7.0,8.0,55,0.00,,,0.00,761.00,VWS V14.01,2013-07-07 19:54:00,
2013-07-07 15:55:00,90.1,71.8,29.95,SSE,152,5.0,11.0,55,0.00,,,0.00,761.00,VWS V14.01,2013-07-07 19:55:00,
2013-07-07 15:59:00,89.9,72.1,29.95,WSW,258,0.0,0.0,56,0.00,,,0.00,294.00,VWS V14.01,2013-07-07 19:59:00,
2013-07-07 16:00:00,89.9,72.1,29.95,SW,228,0.0,13.0,56,0.00,,,0.00,294.00,VWS V14.01,2013-07-07 20:00:00,
2013-07-07 16:04:00,89.3,72.1,29.95,SW,230,6.0,10.0,57,0.00,,,0.00,823.00,VWS V14.01,2013-07-07 20:04:00,
2013-07-07 16:05:00,89.3,72.1,29.95,West,272,10.0,13.0,57,0.00,,,0.00,823.00,VWS V14.01,2013-07-07 20:05:00,
2013-07-07 16:09:00,89.3,73.1,29.95,SSW,204,8.0,8.0,59,0.00,,,0.00,397.00,VWS V14.01,2013-07-07 20:09:00,
2013-07-07 16:10:00,89.3,73.1,29.95,SW,234,6.0,14.0,59,0.00,,,0.00,397.00,VWS V14.01,2013-07-07 20:10:00,
2013-07-07 16:14:00,89.3,72.1,29.95,West,267,5.0,6.0,57,0.00,,,0.00,705.00,VWS V14.01,2013-07-07 20:14:00,
2013-07-07 16:15:00,89.3,72.1,29.95,West,270,6.0,11.0,57,0.00,,,0.00,693.00,VWS V14.01,2013-07-07 20:15:00,
2013-07-07 16:19:00,89.5,72.8,29.95,SW,229,2.0,2.0,58,0.00,,,0.00,677.00,VWS V14.01,2013-07-07 20:19:00,
2013-07-07 16:20:00,89.5,72.3,29.95,SW,229,2.0,14.0,57,0.00,,,0.00,677.00,VWS V14.01,2013-07-07 20:20:00,
2013-07-07 16:24:00,89.9,73.2,29.95,SW,234,9.0,9.0,58,0.00,,,0.00,592.00,VWS V14.01,2013-07-07 20:24:00,
2013-07-07 16:25:00,89.9,73.2,29.95,SW,227,8.0,12.0,58,0.00,,,0.00,592.00,VWS V14.01,2013-07-07 20:25:00,
2013-07-07 16:29:00,89.5,72.3,29.95,WSW,258,6.0,7.0,57,0.00,,,0.00,584.00,VWS V14.01,2013-07-07 20:29:00,
2013-07-07 16:30:00,89.5,72.3,29.95,WSW,250,7.0,13.0,57,0.00,,,0.00,584.00,VWS V14.01,2013-07-07 20:30:00,
2013-07-07 16:34:00,89.3,72.6,29.95,SW,229,9.0,9.0,58,0.00,,,0.00,594.00,VWS V14.01,2013-07-07 20:34:00,
2013-07-07 16:35:00,89.3,72.6,29.95,SSW,206,9.0,11.0,58,0.00,,,0.00,594.00,VWS V14.01,2013-07-07 20:35:00,
2013-07-07 16:39:00,89.0,72.8,29.95,WSW,250,7.0,7.0,59,0.00,,,0.00,531.00,VWS V14.01,2013-07-07 20:39:00,
2013-07-07 16:40:00,89.0,72.8,29.95,WSW,253,7.0,10.0,59,0.00,,,0.00,531.00,VWS V14.01,2013-07-07 20:40:00,
2013-07-07 16:44:00,89.0,72.8,29.94,WNW,293,7.0,8.0,59,0.00,,,0.00,497.00,VWS V14.01,2013-07-07 20:44:00,
2013-07-07 16:45:00,89.0,72.8,29.94,WSW,252,8.0,8.0,59,0.00,,,0.00,497.00,VWS V14.01,2013-07-07 20:45:00,
2013-07-07 16:49:00,88.8,73.1,29.94,SW,228,5.0,5.0,60,0.00,,,0.00,629.00,VWS V14.01,2013-07-07 20:49:00,
2013-07-07 16:50:00,88.8,73.1,29.94,West,268,5.0,12.0,60,0.00,,,0.00,629.00,VWS V14.01,2013-07-07 20:50:00,
2013-07-07 16:54:00,89.5,72.8,29.94,West,271,9.0,9.0,58,0.00,,,0.00,629.00,VWS V14.01,2013-07-07 20:54:00,
2013-07-07 16:55:00,89.5,72.8,29.94,SW,232,7.0,12.0,58,0.00,,,0.00,629.00,VWS V14.01,2013-07-07 20:55:00,
2013-07-07 16:59:00,89.3,72.6,29.94,WSW,247,7.0,8.0,58,0.00,,,0.00,612.00,VWS V14.01,2013-07-07 20:59:00,
2013-07-07 17:00:00,89.3,72.6,29.94,SW,231,8.0,14.0,58,0.00,,,0.00,612.00,VWS V14.01,2013-07-07 21:00:00,
2013-07-07 17:04:00,89.3,73.1,29.94,West,271,6.0,11.0,59,0.00,,,0.00,580.00,VWS V14.01,2013-07-07 21:04:00,
2013-07-07 17:05:00,89.3,73.1,29.94,West,271,6.0,11.0,59,0.00,,,0.00,580.00,VWS V14.01,2013-07-07 21:05:00,
2013-07-07 17:09:00,89.3,73.1,29.94,WSW,244,8.0,8.0,59,0.00,,,0.00,510.00,VWS V14.01,2013-07-07 21:09:00,
2013-07-07 17:10:00,89.3,73.1,29.94,SW,229,8.0,16.0,59,0.00,,,0.00,510.00,VWS V14.01,2013-07-07 21:10:00,
2013-07-07 17:14:00,89.0,72.8,29.94,West,269,7.0,10.0,59,0.00,,,0.00,508.00,VWS V14.01,2013-07-07 21:14:00,
2013-07-07 17:15:00,89.0,72.8,29.94,West,269,7.0,10.0,59,0.00,,,0.00,508.00,VWS V14.01,2013-07-07 21:15:00,
2013-07-07 17:19:00,88.8,72.6,29.94,WSW,246,7.0,7.0,59,0.00,,,0.00,482.00,VWS V14.01,2013-07-07 21:19:00,
2013-07-07 17:20:00,88.8,72.6,29.94,West,273,6.0,16.0,59,0.00,,,0.00,482.00,VWS V14.01,2013-07-07 21:20:00,
2013-07-07 17:24:00,88.8,73.1,29.94,West,280,3.0,12.0,60,0.00,,,0.00,439.00,VWS V14.01,2013-07-07 21:24:00,
2013-07-07 17:25:00,88.8,73.1,29.94,West,280,3.0,12.0,60,0.00,,,0.00,439.00,VWS V14.01,2013-07-07 21:25:00,
2013-07-07 17:29:00,89.0,73.3,29.94,SSW,213,6.0,12.0,60,0.00,,,0.00,504.00,VWS V14.01,2013-07-07 21:29:00,
2013-07-07 17:30:00,89.0,73.3,29.94,SSW,213,6.0,12.0,60,0.00,,,0.00,504.00,VWS V14.01,2013-07-07 21:30:00,
2013-07-07 17:34:00,89.3,72.6,29.94,SW,215,9.0,11.0,58,0.00,,,0.00,418.00,VWS V14.01,2013-07-07 21:34:00,
2013-07-07 17:35:00,89.3,72.6,29.94,SW,215,9.0,11.0,58,0.00,,,0.00,418.00,VWS V14.01,2013-07-07 21:35:00,
2013-07-07 17:39:00,89.0,72.3,29.94,WSW,243,5.0,10.0,58,0.00,,,0.00,401.00,VWS V14.01,2013-07-07 21:39:00,
2013-07-07 17:40:00,89.0,72.3,29.94,WSW,243,5.0,10.0,58,0.00,,,0.00,401.00,VWS V14.01,2013-07-07 21:40:00,
2013-07-07 17:44:00,89.0,72.8,29.93,WSW,241,5.0,8.0,59,0.00,,,0.00,373.00,VWS V14.01,2013-07-07 21:44:00,
2013-07-07 17:45:00,89.0,72.8,29.93,WSW,241,5.0,8.0,59,0.00,,,0.00,373.00,VWS V14.01,2013-07-07 21:45:00,
2013-07-07 17:49:00,88.8,73.1,29.93,WSW,242,8.0,11.0,60,0.00,,,0.00,410.00,VWS V14.01,2013-07-07 21:49:00,
2013-07-07 17:50:00,88.8,73.1,29.93,WSW,242,8.0,11.0,60,0.00,,,0.00,410.00,VWS V14.01,2013-07-07 21:50:00,
2013-07-07 17:54:00,88.6,72.9,29.93,WSW,250,3.0,10.0,60,0.00,,,0.00,404.00,VWS V14.01,2013-07-07 21:54:00,
2013-07-07 17:55:00,88.6,72.9,29.93,WSW,250,3.0,10.0,60,0.00,,,0.00,404.00,VWS V14.01,2013-07-07 21:55:00,
2013-07-07 17:59:00,88.6,72.9,29.93,WSW,254,10.0,10.0,60,0.00,,,0.00,387.00,VWS V14.01,2013-07-07 21:59:00,
2013-07-07 18:00:00,88.6,72.9,29.93,WSW,237,12.0,12.0,60,0.00,,,0.00,387.00,VWS V14.01,2013-07-07 22:00:00,
2013-07-07 18:04:00,88.6,72.9,29.93,SSW,211,5.0,12.0,60,0.00,,,0.00,357.00,VWS V14.01,2013-07-07 22:04:00,
2013-07-07 18:05:00,88.6,72.9,29.93,SW,219,5.0,12.0,60,0.00,,,0.00,357.00,VWS V14.01,2013-07-07 22:05:00,
2013-07-07 18:09:00,88.6,72.9,29.93,WNW,282,2.0,8.0,60,0.00,,,0.00,362.00,VWS V14.01,2013-07-07 22:09:00,
2013-07-07 18:10:00,88.6,72.9,29.93,WNW,282,2.0,8.0,60,0.00,,,0.00,362.00,VWS V14.01,2013-07-07 22:10:00,
2013-07-07 18:14:00,89.0,72.3,29.94,WSW,257,6.0,10.0,58,0.00,,,0.00,343.00,VWS V14.01,2013-07-07 22:14:00,
2013-07-07 18:15:00,89.0,72.3,29.94,WSW,252,7.0,10.0,58,0.00,,,0.00,343.00,VWS V14.01,2013-07-07 22:15:00,
2013-07-07 18:19:00,89.0,73.3,29.94,WSW,240,0.0,8.0,60,0.00,,,0.00,315.00,VWS V14.01,2013-07-07 22:19:00,
2013-07-07 18:20:00,89.0,73.3,29.94,WSW,240,0.0,8.0,60,0.00,,,0.00,315.00,VWS V14.01,2013-07-07 22:20:00,
2013-07-07 18:24:00,89.0,72.3,29.94,SSW,205,9.0,13.0,58,0.00,,,0.00,323.00,VWS V14.01,2013-07-07 22:24:00,
2013-07-07 18:25:00,89.0,72.3,29.94,SW,231,7.0,13.0,58,0.00,,,0.00,334.00,VWS V14.01,2013-07-07 22:25:00,
2013-07-07 18:29:00,88.6,71.9,29.94,SW,229,5.0,12.0,58,0.00,,,0.00,322.00,VWS V14.01,2013-07-07 22:29:00,
2013-07-07 18:30:00,88.6,72.4,29.94,WSW,252,7.0,12.0,59,0.00,,,0.00,322.00,VWS V14.01,2013-07-07 22:30:00,
2013-07-07 18:34:00,88.6,71.9,29.94,WSW,253,6.0,11.0,58,0.00,,,0.00,287.00,VWS V14.01,2013-07-07 22:34:00,
2013-07-07 18:35:00,88.6,71.9,29.94,WSW,253,4.0,11.0,58,0.00,,,0.00,287.00,VWS V14.01,2013-07-07 22:35:00,
2013-07-07 18:39:00,88.6,71.9,29.94,SW,221,8.0,9.0,58,0.00,,,0.00,274.00,VWS V14.01,2013-07-07 22:39:00,
2013-07-07 18:40:00,88.6,71.9,29.94,WSW,245,9.0,10.0,58,0.00,,,0.00,274.00,VWS V14.01,2013-07-07 22:40:00,
2013-07-07 18:44:00,88.4,72.3,29.94,SW,223,0.0,11.0,59,0.00,,,0.00,260.00,VWS V14.01,2013-07-07 22:44:00,
2013-07-07 18:45:00,88.4,72.3,29.94,SW,223,0.0,11.0,59,0.00,,,0.00,260.00,VWS V14.01,2013-07-07 22:45:00,
2013-07-07 18:49:00,88.4,72.3,29.94,West,271,4.0,9.0,59,0.00,,,0.00,237.00,VWS V14.01,2013-07-07 22:49:00,
2013-07-07 18:50:00,88.4,72.3,29.94,West,269,8.0,9.0,59,0.00,,,0.00,237.00,VWS V14.01,2013-07-07 22:50:00,
2013-07-07 18:54:00,88.2,72.6,29.94,WSW,243,3.0,8.0,60,0.00,,,0.00,230.00,VWS V14.01,2013-07-07 22:54:00,
2013-07-07 18:55:00,88.2,72.6,29.94,WSW,240,1.0,8.0,60,0.00,,,0.00,227.00,VWS V14.01,2013-07-07 22:55:00,
2013-07-07 18:59:00,88.0,72.4,29.95,SW,225,3.0,8.0,60,0.00,,,0.00,192.00,VWS V14.01,2013-07-07 22:59:00,
2013-07-07 19:00:00,88.0,72.4,29.95,West,279,5.0,8.0,60,0.00,,,0.00,192.00,VWS V14.01,2013-07-07 23:00:00,
2013-07-07 19:04:00,87.8,72.2,29.95,SW,227,0.0,8.0,60,0.00,,,0.00,88.00,VWS V14.01,2013-07-07 23:04:00,
2013-07-07 19:05:00,87.8,72.7,29.95,SSW,211,2.0,8.0,61,0.00,,,0.00,88.00,VWS V14.01,2013-07-07 23:05:00,
2013-07-07 19:09:00,87.2,72.1,29.95,West,271,0.0,10.0,61,0.00,,,0.00,42.00,VWS V14.01,2013-07-07 23:09:00,
2013-07-07 19:10:00,87.2,72.1,29.95,West,273,0.0,10.0,61,0.00,,,0.00,42.00,VWS V14.01,2013-07-07 23:10:00,
2013-07-07 19:14:00,86.7,72.1,29.95,WSW,258,0.0,7.0,62,0.00,,,0.00,25.00,VWS V14.01,2013-07-07 23:14:00,
2013-07-07 19:15:00,86.7,72.1,29.95,West,265,0.0,7.0,62,0.00,,,0.00,25.00,VWS V14.01,2013-07-07 23:15:00,
2013-07-07 19:19:00,86.3,72.2,29.95,WSW,244,2.0,5.0,63,0.00,,,0.00,18.00,VWS V14.01,2013-07-07 23:19:00,
2013-07-07 19:20:00,86.3,72.2,29.95,WSW,244,0.0,5.0,63,0.00,,,0.00,18.00,VWS V14.01,2013-07-07 23:20:00,
2013-07-07 19:24:00,85.9,72.3,29.95,WSW,252,0.0,0.0,64,0.00,,,0.00,12.00,VWS V14.01,2013-07-07 23:24:00,
2013-07-07 19:25:00,85.9,72.3,29.95,WSW,252,0.0,0.0,64,0.00,,,0.00,12.00,VWS V14.01,2013-07-07 23:25:00,
2013-07-07 19:29:00,85.9,72.3,29.95,WSW,252,0.0,0.0,64,0.00,,,0.00,11.00,VWS V14.01,2013-07-07 23:29:00,
2013-07-07 19:30:00,85.9,72.3,29.95,WSW,252,0.0,0.0,64,0.00,,,0.00,9.00,VWS V14.01,2013-07-07 23:30:00,
2013-07-07 19:34:00,85.5,72.4,29.95,WSW,253,0.0,1.0,65,0.00,,,0.00,5.00,VWS V14.01,2013-07-07 23:34:00,
2013-07-07 19:35:00,85.5,72.8,29.95,WSW,253,0.0,1.0,66,0.00,,,0.00,5.00,VWS V14.01,2013-07-07 23:35:00,
2013-07-07 19:39:00,84.5,68.1,29.95,West,278,14.0,21.0,58,0.00,,,0.00,9.00,VWS V14.01,2013-07-07 23:39:00,
2013-07-07 19:40:00,84.3,66.4,29.95,West,261,13.0,21.0,55,0.00,,,0.00,9.00,VWS V14.01,2013-07-07 23:40:00,
2013-07-07 19:44:00,83.4,65.0,29.96,WNW,294,7.0,15.0,54,0.00,,,0.00,18.00,VWS V14.01,2013-07-07 23:44:00,
2013-07-07 19:45:00,83.4,65.0,29.96,West,261,9.0,15.0,54,0.00,,,0.00,18.00,VWS V14.01,2013-07-07 23:45:00,
2013-07-07 19:49:00,82.8,64.5,29.96,West,260,9.0,12.0,54,0.00,,,0.00,23.00,VWS V14.01,2013-07-07 23:49:00,
2013-07-07 19:50:00,82.8,64.5,29.96,West,260,7.0,12.0,54,0.00,,,0.00,23.00,VWS V14.01,2013-07-07 23:50:00,
2013-07-07 19:54:00,82.2,63.4,29.96,WSW,239,0.0,18.0,53,0.00,,,0.00,47.00,VWS V14.01,2013-07-07 23:54:00,
2013-07-07 19:55:00,82.0,63.2,29.96,West,259,5.0,18.0,53,0.00,,,0.00,47.00,VWS V14.01,2013-07-07 23:55:00,
2013-07-07 19:59:00,81.1,63.9,29.98,SW,225,0.0,14.0,56,0.00,,,0.00,58.00,VWS V14.01,2013-07-07 23:59:00,
2013-07-07 20:00:00,80.9,63.8,29.98,SW,225,0.0,14.0,56,0.00,,,0.00,58.00,VWS V14.01,2013-07-08 00:00:00,
2013-07-07 20:04:00,80.3,65.2,29.98,SSW,209,0.0,6.0,60,0.00,,,0.00,44.00,VWS V14.01,2013-07-08 00:04:00,
2013-07-07 20:05:00,80.3,65.2,29.98,SSW,210,0.0,6.0,60,0.00,,,0.00,44.00,VWS V14.01,2013-07-08 00:05:00,
2013-07-07 20:09:00,79.9,65.7,29.98,SSW,210,0.0,0.0,62,0.00,,,0.00,33.00,VWS V14.01,2013-07-08 00:09:00,
2013-07-07 20:10:00,79.9,66.6,29.98,SSW,209,0.0,0.0,64,0.00,,,0.00,33.00,VWS V14.01,2013-07-08 00:10:00,
2013-07-07 20:14:00,79.4,66.6,29.98,SSW,209,0.0,0.0,65,0.00,,,0.00,14.00,VWS V14.01,2013-07-08 00:14:00,
2013-07-07 20:15:00,79.4,66.6,29.98,SSW,210,0.0,0.0,65,0.00,,,0.00,14.00,VWS V14.01,2013-07-08 00:15:00,
2013-07-07 20:19:00,79.0,67.1,29.98,SSW,210,0.0,0.0,67,0.00,,,0.00,0.00,VWS V14.01,2013-07-08 00:19:00,
2013-07-07 20:20:00,79.0,67.1,29.98,SSW,210,0.0,0.0,67,0.00,,,0.00,0.00,VWS V14.01,2013-07-08 00:20:00,
2013-07-07 20:24:00,78.6,67.6,29.98,SSW,210,0.0,0.0,69,0.00,,,0.00,0.00,VWS V14.01,2013-07-08 00:24:00,
2013-07-07 20:25:00,78.6,67.6,29.98,SSW,209,0.0,0.0,69,0.00,,,0.00,0.00,VWS V14.01,2013-07-08 00:25:00,
2013-07-07 20:29:00,78.3,67.7,29.98,SSW,210,0.0,0.0,70,0.00,,,0.00,0.00,VWS V14.01,2013-07-08 00:29:00,
2013-07-07 20:30:00,78.3,67.7,29.98,SSW,210,0.0,0.0,70,0.00,,,0.00,0.00,VWS V14.01,2013-07-08 00:30:00,
2013-07-07 20:34:00,77.6,65.8,29.98,WSW,238,5.0,7.0,67,0.00,,,0.00,0.00,VWS V14.01,2013-07-08 00:34:00,
2013-07-07 20:35:00,77.6,65.8,29.98,South,183,8.0,9.0,67,0.00,,,0.00,0.00,VWS V14.01,2013-07-08 00:35:00,
2013-07-07 20:39:00,77.0,65.2,29.98,West,265,0.0,9.0,67,0.00,,,0.00,0.00,VWS V14.01,2013-07-08 00:39:00,
2013-07-07 20:40:00,77.0,65.2,29.98,West,265,0.0,9.0,67,0.00,,,0.00,0.00,VWS V14.01,2013-07-08 00:40:00,
2013-07-07 20:44:00,76.8,65.9,29.97,NW,305,0.0,7.0,69,0.00,,,0.00,0.00,VWS V14.01,2013-07-08 00:44:00,
2013-07-07 20:45:00,76.7,65.8,29.97,NW,304,0.0,7.0,69,0.00,,,0.00,0.00,VWS V14.01,2013-07-08 00:45:00,
2013-07-07 20:49:00,76.3,66.6,29.97,South,188,3.0,10.0,72,0.01,,,0.01,0.00,VWS V14.01,2013-07-08 00:49:00,
2013-07-07 20:50:00,76.3,66.6,29.97,South,186,4.0,10.0,72,0.01,,,0.01,0.00,VWS V14.01,2013-07-08 00:50:00,
2013-07-07 20:54:00,76.0,67.1,29.97,ESE,104,6.0,9.0,74,0.01,,,0.01,0.00,VWS V14.01,2013-07-08 00:54:00,
2013-07-07 20:55:00,76.0,67.1,29.97,SSW,210,5.0,9.0,74,0.01,,,0.01,0.00,VWS V14.01,2013-07-08 00:55:00,
2013-07-07 20:59:00,75.3,67.6,29.97,West,260,0.0,11.0,77,0.01,,,0.01,0.00,VWS V14.01,2013-07-08 00:59:00,
2013-07-07 21:00:00,75.3,67.6,29.97,SW,232,7.0,11.0,77,0.01,,,0.01,0.00,VWS V14.01,2013-07-08 01:00:00,
2013-07-07 21:04:00,74.7,67.4,29.97,WSW,238,4.0,7.0,78,0.01,,,0.01,0.00,VWS V14.01,2013-07-08 01:04:00,
2013-07-07 21:05:00,74.7,67.4,29.97,SW,234,2.0,7.0,78,0.01,,,0.01,0.00,VWS V14.01,2013-07-08 01:05:00,
2013-07-07 21:09:00,74.6,68.0,29.97,SW,218,0.0,2.0,80,0.01,,,0.01,0.00,VWS V14.01,2013-07-08 01:09:00,
2013-07-07 21:10:00,74.4,67.8,29.97,SW,220,1.0,2.0,80,0.01,,,0.01,0.00,VWS V14.01,2013-07-08 01:10:00,
2013-07-07 21:14:00,74.2,67.6,29.97,SW,231,0.0,6.0,80,0.01,,,0.01,0.00,VWS V14.01,2013-07-08 01:14:00,
2013-07-07 21:15:00,74.2,67.6,29.97,WSW,247,0.0,6.0,80,0.01,,,0.01,0.00,VWS V14.01,2013-07-08 01:15:00,
2013-07-07 21:19:00,74.2,67.3,29.97,NW,304,1.0,5.0,79,0.01,,,0.01,0.00,VWS V14.01,2013-07-08 01:19:00,
2013-07-07 21:20:00,74.2,67.6,29.97,West,268,5.0,5.0,80,0.01,,,0.01,0.00,VWS V14.01,2013-07-08 01:20:00,
2013-07-07 21:24:00,74.0,67.8,29.97,WNW,285,0.0,6.0,81,0.01,,,0.01,0.00,VWS V14.01,2013-07-08 01:24:00,
2013-07-07 21:25:00,74.0,67.8,29.97,WNW,285,0.0,6.0,81,0.01,,,0.01,0.00,VWS V14.01,2013-07-08 01:25:00,
2013-07-07 21:29:00,73.9,67.7,29.98,WNW,285,0.0,1.0,81,0.01,,,0.01,0.00,VWS V14.01,2013-07-08 01:29:00,
2013-07-07 21:30:00,73.9,67.7,29.98,WNW,285,0.0,1.0,81,0.01,,,0.01,0.00,VWS V14.01,2013-07-08 01:30:00,
2013-07-07 21:34:00,73.7,67.9,29.98,WNW,285,0.0,0.0,82,0.01,,,0.01,0.00,VWS V14.01,2013-07-08 01:34:00,
2013-07-07 21:35:00,73.7,67.9,29.98,WNW,286,0.0,0.0,82,0.01,,,0.01,0.00,VWS V14.01,2013-07-08 01:35:00,
2013-07-07 21:39:00,73.7,67.9,29.98,WNW,285,0.0,0.0,82,0.01,,,0.01,0.00,VWS V14.01,2013-07-08 01:39:00,
2013-07-07 21:40:00,73.7,67.9,29.98,WNW,286,0.0,0.0,82,0.01,,,0.01,0.00,VWS V14.01,2013-07-08 01:40:00,
2013-07-07 21:44:00,73.5,67.3,29.98,WNW,286,0.0,0.0,81,0.01,,,0.01,0.00,VWS V14.01,2013-07-08 01:44:00,
2013-07-07 21:45:00,73.5,67.3,29.98,WNW,286,0.0,0.0,81,0.01,,,0.01,0.00,VWS V14.01,2013-07-08 01:45:00,
2013-07-07 21:49:00,73.3,67.1,29.98,SW,221,0.0,6.0,81,0.01,,,0.01,0.00,VWS V14.01,2013-07-08 01:49:00,
2013-07-07 21:50:00,73.3,67.1,29.98,SW,221,0.0,6.0,81,0.01,,,0.01,0.00,VWS V14.01,2013-07-08 01:50:00,
2013-07-07 21:54:00,73.3,66.8,29.98,WSW,238,0.0,5.0,80,0.00,,,0.01,0.00,VWS V14.01,2013-07-08 01:54:00,
2013-07-07 21:55:00,73.3,66.8,29.98,West,263,4.0,5.0,80,0.00,,,0.01,0.00,VWS V14.01,2013-07-08 01:55:00,
2013-07-07 21:59:00,73.3,66.8,29.98,West,270,3.0,6.0,80,0.00,,,0.01,0.00,VWS V14.01,2013-07-08 01:59:00,
2013-07-07 22:00:00,73.3,66.8,29.98,WSW,247,1.0,6.0,80,0.00,,,0.01,0.00,VWS V14.01,2013-07-08 02:00:00,
2013-07-07 22:04:00,73.3,66.8,29.98,WNW,282,5.0,10.0,80,0.00,,,0.01,0.00,VWS V14.01,2013-07-08 02:04:00,
2013-07-07 22:05:00,73.5,67.0,29.98,West,261,4.0,10.0,80,0.00,,,0.01,0.00,VWS V14.01,2013-07-08 02:05:00,
2013-07-07 22:09:00,73.3,67.1,29.98,SW,217,0.0,9.0,81,0.00,,,0.01,0.00,VWS V14.01,2013-07-08 02:09:00,
2013-07-07 22:10:00,73.3,67.1,29.98,SW,217,0.0,9.0,81,0.00,,,0.01,0.00,VWS V14.01,2013-07-08 02:10:00,
2013-07-07 22:14:00,73.3,67.1,29.99,West,271,0.0,1.0,81,0.00,,,0.01,0.00,VWS V14.01,2013-07-08 02:14:00,
2013-07-07 22:15:00,73.3,67.1,29.99,West,271,0.0,1.0,81,0.00,,,0.01,0.00,VWS V14.01,2013-07-08 02:15:00,
2013-07-07 22:19:00,73.3,67.1,29.99,West,271,5.0,7.0,81,0.00,,,0.01,0.00,VWS V14.01,2013-07-08 02:19:00,
2013-07-07 22:20:00,73.3,67.1,29.99,West,280,3.0,7.0,81,0.00,,,0.01,0.00,VWS V14.01,2013-07-08 02:20:00,
2013-07-07 22:24:00,73.2,67.0,29.99,WNW,298,0.0,7.0,81,0.00,,,0.01,0.00,VWS V14.01,2013-07-08 02:24:00,
2013-07-07 22:25:00,73.2,67.0,29.99,West,269,0.0,7.0,81,0.00,,,0.01,0.00,VWS V14.01,2013-07-08 02:25:00,
2013-07-07 22:29:00,73.2,67.0,29.98,WSW,248,0.0,0.0,81,0.00,,,0.01,0.00,VWS V14.01,2013-07-08 02:29:00,
2013-07-07 22:30:00,73.2,67.0,29.98,WSW,248,0.0,0.0,81,0.00,,,0.01,0.00,VWS V14.01,2013-07-08 02:30:00,
2013-07-07 22:34:00,73.2,67.0,29.98,WSW,248,0.0,0.0,81,0.00,,,0.01,0.00,VWS V14.01,2013-07-08 02:34:00,
2013-07-07 22:35:00,73.2,67.0,29.98,WSW,248,0.0,0.0,81,0.00,,,0.01,0.00,VWS V14.01,2013-07-08 02:35:00,
2013-07-07 22:39:00,73.0,66.8,29.98,WSW,242,0.0,1.0,81,0.00,,,0.01,0.00,VWS V14.01,2013-07-08 02:39:00,
2013-07-07 22:40:00,73.0,66.8,29.98,WSW,242,0.0,1.0,81,0.00,,,0.01,0.00,VWS V14.01,2013-07-08 02:40:00,
2013-07-07 22:44:00,72.8,66.6,29.98,WSW,242,0.0,1.0,81,0.00,,,0.01,0.00,VWS V14.01,2013-07-08 02:44:00,
2013-07-07 22:45:00,72.8,66.6,29.98,WSW,242,0.0,1.0,81,0.00,,,0.01,0.00,VWS V14.01,2013-07-08 02:45:00,
2013-07-07 22:49:00,72.8,66.6,29.98,West,260,0.0,5.0,81,0.00,,,0.01,0.00,VWS V14.01,2013-07-08 02:49:00,
2013-07-07 22:50:00,72.8,66.6,29.98,West,261,0.0,5.0,81,0.00,,,0.01,0.00,VWS V14.01,2013-07-08 02:50:00,
2013-07-07 22:54:00,72.7,66.5,29.98,West,263,0.0,0.0,81,0.00,,,0.01,0.00,VWS V14.01,2013-07-08 02:54:00,
2013-07-07 22:55:00,72.7,66.5,29.98,West,263,0.0,0.0,81,0.00,,,0.01,0.00,VWS V14.01,2013-07-08 02:55:00,
2013-07-07 22:59:00,72.7,66.2,29.98,West,269,0.0,0.0,80,0.00,,,0.01,0.00,VWS V14.01,2013-07-08 02:59:00,
2013-07-07 23:00:00,72.7,66.2,29.98,West,269,0.0,0.0,80,0.00,,,0.01,0.00,VWS V14.01,2013-07-08 03:00:00,
2013-07-07 23:04:00,72.7,66.2,29.98,West,277,0.0,6.0,80,0.00,,,0.01,0.00,VWS V14.01,2013-07-08 03:04:00,
2013-07-07 23:05:00,72.7,66.2,29.98,West,277,0.0,6.0,80,0.00,,,0.01,0.00,VWS V14.01,2013-07-08 03:05:00,
2013-07-07 23:09:00,72.7,66.2,29.98,West,270,0.0,7.0,80,0.00,,,0.01,0.00,VWS V14.01,2013-07-08 03:09:00,
2013-07-07 23:10:00,72.7,66.2,29.98,WSW,257,6.0,7.0,80,0.00,,,0.01,0.00,VWS V14.01,2013-07-08 03:10:00,
2013-07-07 23:14:00,72.7,66.2,29.99,West,270,5.0,9.0,80,0.00,,,0.01,0.00,VWS V14.01,2013-07-08 03:14:00,
2013-07-07 23:15:00,72.7,66.2,29.99,SSW,207,4.0,9.0,80,0.00,,,0.01,0.00,VWS V14.01,2013-07-08 03:15:00,
2013-07-07 23:19:00,72.7,66.5,29.99,WSW,239,0.0,7.0,81,0.00,,,0.01,0.00,VWS V14.01,2013-07-08 03:19:00,
2013-07-07 23:20:00,72.7,66.5,29.99,WSW,239,0.0,7.0,81,0.00,,,0.01,0.00,VWS V14.01,2013-07-08 03:20:00,
2013-07-07 23:24:00,72.5,66.3,29.99,West,279,4.0,7.0,81,0.00,,,0.01,0.00,VWS V14.01,2013-07-08 03:24:00,
2013-07-07 23:25:00,72.5,66.3,29.99,SSW,209,3.0,7.0,81,0.00,,,0.01,0.00,VWS V14.01,2013-07-08 03:25:00,
2013-07-07 23:29:00,72.5,66.3,29.98,West,279,0.0,6.0,81,0.00,,,0.01,0.00,VWS V14.01,2013-07-08 03:29:00,
2013-07-07 23:30:00,72.5,66.3,29.98,West,279,0.0,6.0,81,0.00,,,0.01,0.00,VWS V14.01,2013-07-08 03:30:00,
2013-07-07 23:34:00,72.5,66.3,29.98,SW,236,0.0,6.0,81,0.00,,,0.01,0.00,VWS V14.01,2013-07-08 03:34:00,
2013-07-07 23:35:00,72.5,66.3,29.98,SW,236,0.0,6.0,81,0.00,,,0.01,0.00,VWS V14.01,2013-07-08 03:35:00,
2013-07-07 23:39:00,72.5,66.3,29.98,West,259,5.0,8.0,81,0.00,,,0.01,0.00,VWS V14.01,2013-07-08 03:39:00,
2013-07-07 23:40:00,72.5,66.3,29.98,West,276,4.0,8.0,81,0.00,,,0.01,0.00,VWS V14.01,2013-07-08 03:40:00,
2013-07-07 23:44:00,72.5,66.3,29.99,West,264,3.0,6.0,81,0.00,,,0.01,0.00,VWS V14.01,2013-07-08 03:44:00,
2013-07-07 23:45:00,72.5,66.3,29.99,West,276,0.0,6.0,81,0.00,,,0.01,0.00,VWS V14.01,2013-07-08 03:45:00,
2013-07-07 23:49:00,72.5,66.3,29.99,WSW,248,0.0,1.0,81,0.00,,,0.01,0.00,VWS V14.01,2013-07-08 03:49:00,
2013-07-07 23:50:00,72.5,66.3,29.99,WSW,247,0.0,1.0,81,0.00,,,0.01,0.00,VWS V14.01,2013-07-08 03:50:00,
2013-07-07 23:54:00,72.5,66.3,29.99,WSW,247,0.0,5.0,81,0.00,,,0.01,0.00,VWS V14.01,2013-07-08 03:54:00,
2013-07-07 23:55:00,72.3,66.2,29.99,WSW,248,0.0,5.0,81,0.00,,,0.01,0.00,VWS V14.01,2013-07-08 03:55:00,
2013-07-07 23:59:00,72.3,66.2,29.99,WSW,242,5.0,7.0,81,0.00,,,0.01,0.00,VWS V14.01,2013-07-08 03:59:00,